Flag for Canada Weather past 2 weeks in Camrose, Alberta, Canada

Now
30 °F

Passing clouds.


Feels Like: 24 °F
Forecast: 23 / 29 °F
Wind: 6 mph from Northwest

Location: Edmonton International

Current Time: Dec 21, 2014 at 11:30:50 PM

Latest Report: Dec 21, 2014 at 10:00 PM


Visibility: 15 mi

Pressure: 29.68 "Hg

Humidity: 93%

Dew point: 28 °F

Location of CamroseLocation

Historic Weather in Camrose — Graph

°F

Camrose temperature yesterday

Maximum temperature yesterday: 30 °F (at 1:00 PM)
Minimum temperature yesterday: 9 °F (at 8:00 AM)
Average temperature yesterday: 20 °F

Past Weeks' High & Low Weather Summary

 TemperatureHumidityPressure
High48 °F (Dec 9, 7:00 PM)93% (Dec 7, 9:55 AM)30.44 "Hg (Dec 7, 9:55 AM)
Low3 °F (Dec 7, 7:00 PM)50% (Dec 9, 10:00 PM)29.22 "Hg (Dec 11, 4:00 AM)
Average23 °F82%29.89 "Hg
* Reported Dec 6 10:00 PM — Dec 21 10:00 PM, Camrose, Weather by CustomWeather, © 2014

Note: Actual official high and low records may vary slightly from our data, if they occured in-between our weather recording intervals... More about our weather records

Advertising

Camrose weather history for previous 24 hours

 ConditionsComfort  
Time TempWeatherWind HumidityBarometerVisibility
10:00 PM
Dec 21
30 °FPassing clouds.6 mph93%29.68 "Hg15 mi
9:57 PM30 °FPassing clouds.6 mph93%29.68 "Hg15 mi
9:00 PM28 °FLight snow. Passing clouds.6 mph93%29.67 "Hg12 mi
8:00 PM28 °FPassing clouds.8 mph93%29.66 "Hg10 mi
7:00 PM28 °FLight snow. Mostly cloudy.5 mph93%29.65 "Hg8 mi
6:50 PM28 °FLight snow. Low clouds.5 mph86%29.65 "Hg8 mi
6:00 PM25 °FLight snow. Overcast.3 mph86%29.65 "Hg6 mi
5:00 PM23 °FMostly cloudy.5 mph86%29.63 "Hg10 mi
4:00 PM25 °FMostly cloudy.6 mph80%29.60 "Hg10 mi
3:00 PM23 °FLight snow. Mostly cloudy.5 mph86%29.57 "Hg8 mi
2:00 PM23 °FLight snow. Partly sunny.9 mph86%29.53 "Hg8 mi
1:00 PM21 °FLow clouds.12 mph80%29.52 "Hg10 mi
12:00 PM19 °FBroken clouds.8 mph86%29.49 "Hg15 mi
11:00 AM19 °FPartly sunny.9 mph86%29.47 "Hg15 mi
10:00 AM21 °FPartly sunny.3 mph80%29.44 "Hg15 mi
9:00 AM19 °FBroken clouds.3 mph86%29.41 "Hg15 mi
8:00 AM19 °FOvercast.2 mph86%29.39 "Hg15 mi
7:00 AM19 °FOvercast.8 mph86%29.36 "Hg15 mi
6:00 AM19 °FOvercast.6 mph86%29.35 "Hg15 mi
5:00 AM19 °FMostly cloudy.6 mph86%29.33 "Hg15 mi
4:00 AM21 °FPassing clouds.13 mph80%29.34 "Hg15 mi
3:00 AM21 °FPartly cloudy.10 mph86%29.34 "Hg15 mi
2:00 AM21 °FPassing clouds.7 mph80%29.34 "Hg15 mi
1:00 AM21 °FPassing clouds.10 mph80%29.36 "Hg15 mi
12:00 AM21 °FPassing clouds.13 mph80%29.39 "Hg15 mi
11:00 PM
Dec 20
23 °FPassing clouds.9 mph74%29.43 "Hg15 mi
Weather by CustomWeather, © 2014

See weather overviewHow to use our weather pages